EW6143 Weather Reports


time (UTC)temp
F
wind
direction
speed
knots
gust
knots
rain 1hr
in
rain 24hr
in
rain mn
in
humidity
%
barometer
mb
20260901124540 80 322 0.0 2.6 0.00 0.00 0.00 73 1017.5
20260901123034 79 298 0.0 2.6 0.00 0.00 0.00 73 1017.3
20260901121536 79 0 0.0 0.0 0.00 0.00 0.00 72 1017.1
20260901120038 79 0 0.0 0.9 0.00 0.00 0.00 71 1016.7
20260901114543 79 0 0.0 2.6 0.00 0.00 0.00 71 1016.7
20260901113036 79 0 0.0 2.6 0.00 0.00 0.00 71 1016.6
20260901111538 80 294 0.9 3.5 0.00 0.00 0.00 70 1016.5
20260901110034 80 0 0.9 1.7 0.00 0.00 0.00 70 1016.4
20260901104533 80 0 0.0 0.0 0.00 0.00 0.00 70 1016.3
20260901103034 80 0 0.0 0.0 0.00 0.00 0.00 69 1016.4
20260901101535 80 0 0.0 1.7 0.00 0.00 0.00 68 1016.4
20260901100034 81 0 0.0 1.7 0.00 0.00 0.00 67 1016.5
20260901094538 81 0 0.0 0.0 0.00 0.00 0.00 66 1016.5
20260901093038 82 0 0.0 0.0 0.00 0.00 0.00 65 1016.6
20260901091536 82 0 0.0 0.9 0.00 0.00 0.00 64 1016.6
20260901090038 83 288 0.0 1.7 0.00 0.00 0.00 63 1016.4
20260901084540 83 0 0.0 2.6 0.00 0.00 0.00 62 1016.3
20260901083038 83 0 0.0 2.6 0.00 0.00 0.00 61 1016.2
20260901081536 83 294 0.9 3.5 0.00 0.00 0.00 60 1016.1
20260901080038 84 329 0.9 2.6 0.00 0.00 0.00 59 1016.1
20260901074544 85 0 0.0 3.5 0.00 0.00 0.00 58 1016.1
20260901073036 85 300 1.7 3.5 0.00 0.00 0.00 56 1016.1
20260901071537 86 298 1.7 6.1 0.00 0.00 0.00 56 1016.1
20260901070044 86 281 3.5 7.8 0.00 0.00 0.00 55 1016.1
20260901064535 86 0 3.5 7.8 0.00 0.00 0.00 55 1016.0
20260901063035 87 0 0.9 5.2 0.00 0.00 0.00 55 1015.9
20260901061535 87 270 1.7 7.0 0.00 0.00 0.00 54 1015.9
20260901060037 88 277 2.6 9.6 0.00 0.00 0.00 53 1015.7
20260901054535 88 267 4.3 9.6 0.00 0.00 0.00 52 1015.5
20260901053036 88 281 2.6 10.4 0.00 0.00 0.00 51 1015.4
20260901051543 88 222 5.2 9.6 0.00 0.00 0.00 51 1015.3
20260901050035 88 270 3.5 7.8 0.00 0.00 0.00 50 1015.2
20260901044551 87 252 0.9 3.5 0.00 0.00 0.00 49 1015.2
20260901043034 87 261 1.7 5.2 0.00 0.00 0.00 48 1015.0
20260901041534 87 292 2.6 5.2 0.00 0.00 0.00 49 1015.1
20260901040042 87 0 0.0 1.7 0.00 0.00 0.00 50 1014.9
20260901034536 88 245 0.0 1.7 0.00 0.00 0.00 50 1014.9
20260901033051 88 225 0.9 2.6 0.00 0.00 0.00 48 1014.9
20260901031536 89 0 0.0 1.7 0.00 0.00 0.00 47 1014.8
20260901030037 90 223 0.9 2.6 0.00 0.00 0.00 47 1014.7
20260901024539 90 207 1.7 3.5 0.00 0.00 0.00 48 1014.5
20260901023044 91 0 0.0 0.0 0.00 0.00 0.00 46 1014.2
20260901021552 92 0 0.0 0.9 0.00 0.00 0.00 46 1014.0
20260901020038 93 242 0.0 2.6 0.00 0.00 0.00 46 1014.0
20260901014538 94 275 0.0 2.6 0.00 0.00 0.00 42 1013.8
20260901013046 95 275 0.9 3.5 0.00 0.00 0.00 38 1013.9
20260901011558 95 277 0.9 3.5 0.00 0.00 0.00 37 1013.9
20260901010035 96 278 1.7 6.1 0.00 0.00 0.00 37 1013.6
20260901004538 97 330 1.7 7.8 0.00 0.00 0.00 37 1013.6
20260901003047 97 280 2.6 8.7 0.00 0.00 0.00 35 1013.6
20260901001536 98 249 3.5 7.0 0.00 0.00 0.00 35 1013.5
20260901000035 98 285 3.5 8.7 0.00 0.00 0.00 34 1013.5
20260831234536 99 234 4.3 8.7 0.00 0.00 0.00 34 1013.6
20260831233036 100 283 6.1 9.6 0.00 0.00 0.00 33 1013.6
20260831231537 98 5 2.6 10.4 0.00 0.00 0.00 32 1013.5
20260831230036 99 314 3.5 8.7 0.00 0.00 0.00 32 1013.5
20260831224536 99 355 3.5 7.0 0.00 0.00 0.00 31 1013.6
20260831223038 99 0 2.6 7.8 0.00 0.00 0.00 32 1013.8
20260831221547 100 284 3.5 7.8 0.00 0.00 0.00 31 1013.9
20260831220033 99 304 3.5 7.8 0.00 0.00 0.00 31 1013.9
20260831214534 100 355 4.3 8.7 0.00 0.00 0.00 32 1014.1
20260831213039 99 320 1.7 8.7 0.00 0.00 0.00 33 1014.2
20260831211542 99 290 4.3 8.7 0.00 0.00 0.00 33 1014.4
20260831210034 99 337 3.5 9.6 0.00 0.00 0.00 33 1014.5
20260831204538 99 352 3.5 10.4 0.00 0.00 0.00 33 1014.9
20260831203043 99 360 4.3 8.7 0.00 0.00 0.00 32 1015.1
20260831201544 99 25 5.2 12.2 0.00 0.00 0.00 32 1015.2
20260831200034 99 260 2.6 10.4 0.00 0.00 0.00 33 1015.4
20260831194538 99 311 5.2 10.4 0.00 0.00 0.00 35 1015.7
20260831193032 101 304 1.7 12.2 0.00 0.00 0.00 36 1016.0
20260831191536 98 319 3.5 10.4 0.00 0.00 0.00 38 1016.0
20260831190042 97 331 2.6 12.2 0.00 0.00 0.00 38 1016.2
20260831184536 97 360 5.2 9.6 0.00 0.00 0.00 38 1016.3
20260831183032 96 296 3.5 12.2 0.00 0.00 0.00 39 1016.5
20260831181536 96 279 5.2 9.6 0.00 0.00 0.00 38 1016.7
20260831180049 97 333 2.6 10.4 0.00 0.00 0.00 40 1016.8
20260831174534 96 323 1.7 6.1 0.00 0.00 0.00 44 1017.2
20260831173034 96 341 0.9 7.0 0.00 0.00 0.00 44 1017.4
20260831171535 95 13 1.7 7.0 0.00 0.00 0.00 45 1017.6
20260831170035 94 342 1.7 7.8 0.00 0.00 0.00 46 1017.8
20260831164541 93 283 5.2 10.4 0.00 0.00 0.00 47 1017.9
20260831163037 93 5 2.6 7.8 0.00 0.00 0.00 46 1017.9
20260831161541 92 15 4.3 9.6 0.00 0.00 0.00 46 1018.0
20260831160036 92 321 2.6 7.8 0.00 0.00 0.00 47 1017.9
20260831154601 91 355 2.6 7.0 0.00 0.00 0.00 48 1018.0
20260831153039 91 339 1.7 7.8 0.00 0.00 0.00 50 1017.8
20260831151536 89 342 2.6 8.7 0.00 0.00 0.00 52 1018.0
20260831150038 88 17 2.6 7.0 0.00 0.00 0.00 56 1017.8
20260831144545 86 341 2.6 6.1 0.00 0.00 0.00 60 1017.7
20260831143039 86 11 1.7 7.0 0.00 0.00 0.00 61 1017.8
20260831141537 84 319 2.6 5.2 0.00 0.00 0.00 63 1017.8
20260831140036 84 5 1.7 6.1 0.00 0.00 0.00 66 1017.7
20260831134535 83 352 2.6 6.1 0.00 0.00 0.00 68 1017.5
20260831133036 82 328 0.9 3.5 0.00 0.00 0.00 70 1017.5
20260831131536 80 311 1.7 3.5 0.00 0.00 0.00 72 1017.1
20260831130037 79 311 0.0 2.6 0.00 0.00 0.00 73 1017.0